Miscellaneous Local Product
Issued by NWS Hastings, NE

Home | Current Version | Previous Version | Graphics & Text | Print | Product List | Glossary On
Versions: 1 2 3 4 5 6 7 8 9 10 11 12 13 14 15 16 17 18 19 20 21 22 23 24 25 26 27 28 29 30 31 32 33 34 35 36 37 38 39 40 41 42 43 44 45 46 47 48 49 50
000
AXUS43 KGID 291302
MISGRI

GID CWA HOURLY WEATHER ROUNDUP
NATIONAL WEATHER SERVICE HASTINGS NE
700 AM CST THU JAN 29 2015

NOTE: "FAIR" INDICATES FEW OR NO CLOUDS BELOW 12,000 FEET WITH NO
SIGNIFICANT WEATHER AND/OR OBSTRUCTIONS TO VISIBILITY.

...SOUTH CENTRAL NEBRASKA...

CITY           SKY/WX    TMP DP  RH WIND       PRES   REMARKS
GRAND ISLAND   MOCLDY    35  26  69 N23G31    30.33R WCI  23
HASTINGS       PTCLDY    35  24  64 N16G28    30.32R WCI  25
KEARNEY        CLOUDY    37  23  56 N21G30    30.34R WCI  27
ORD            CLOUDY    35  24  64 NW23G31   30.32R WCI  23
YORK           CLOUDY    37  28  70 N17G28    30.27R WCI  28
AURORA         CLOUDY    37  28  68 N25G31    30.30R WCI  26
LEXINGTON      CLOUDY    37  26  62 N17G31    30.35R WCI  28
HOLDREGE       CLOUDY    37  25  62 N14G21    30.34R WCI  28
HEBRON         CLOUDY    39  28  64 N15G25    30.29R WCI  31

...NEBRASKA PANHANDLE...

CITY           SKY/WX    TMP DP  RH WIND       PRES   REMARKS
CHADRON        PTCLDY    22  19  89 VRB3      30.45R
ALLIANCE       CLEAR     25  23  92 NW7       30.41R WCI  17
SCOTTSBLUFF    CLEAR     30  24  78 NW7       30.44R WCI  23
SIDNEY         CLEAR     25  19  78 W6        30.42R WCI  18

...WESTERN AND NORTH CENTRAL NEBRASKA...

CITY           SKY/WX    TMP DP  RH WIND       PRES   REMARKS
VALENTINE      CLOUDY    35  23  61 NW16G23   30.38R WCI  25
AINSWORTH      CLOUDY    33  25  70 N26G32    30.36R WCI  20
ONEILL         CLOUDY    36  28  75 NW23      30.33R WCI  24
BROKEN BOW     CLOUDY    35  25  66 N30G40    30.35R WCI  22
IMPERIAL       PTCLDY    27  23  85 NW10      30.43R WCI  17
NORTH PLATTE   PTCLDY    25  21  85 W9        30.40R WCI  15
MCCOOK         CLEAR     29  24  82 W9        30.41R WCI  20

...EASTERN NEBRASKA...

CITY           SKY/WX    TMP DP  RH WIND       PRES   REMARKS
NORFOLK        CLOUDY    36  29  75 N28G38    30.27R WCI  23
SO SIOUX CITY  CLOUDY    35  28  75 N26G35    30.24R WCI  22
TEKAMAH        CLOUDY    36  28  73 NW21G31   30.24R WCI  25
COLUMBUS       CLOUDY    37  27  65 N22G35    30.29R WCI  27
ALBION         CLOUDY    37  27  68 N20G32    30.28R WCI  26
OMAHA EPPLEY   CLOUDY    36  28  73 NW18G29   30.22R WCI  26
OFFUTT AFB     CLOUDY    37  27  66 NW18G29   30.22R WCI  27
MILLARD        CLOUDY    38  28  69 NW16G25   30.23R WCI  29
LINCOLN        CLOUDY    38  28  67 N26G32    30.28R WCI  26
NEBRASKA CITY  CLOUDY    37  24  61 N24G39    30.22R WCI  25
BEATRICE       CLOUDY    38  29  71 N24       30.26R WCI  27
FALLS CITY     CLOUDY    37  28  70 NW16G26   30.22R WCI  28

...NORTHERN KANSAS...

CITY           SKY/WX    TMP DP  RH WIND       PRES   REMARKS
GOODLAND       PTCLDY    30  25  81 N15       30.41R WCI  19
HILL CITY      CLEAR     31  24  75 NW10      30.41R WCI  22
NORTON         SUNNY     28  21  74 W12       30.38  WCI  18
PHILLIPSBURG   CLEAR     36  27  69 NW10      30.38R WCI  28
SMITH CENTER   MOCLDY    34  25  69 NW12G21   30.36R WCI  25
BELOIT         CLEAR     36  28  75 NW8       30.33R WCI  29
HAYS           PTCLDY    34  21  60 NW15      30.37R WCI  24
RUSSELL        PTCLDY    34  28  79 NW16      30.34R WCI  24
CONCORDIA      CLOUDY    39  29  67 N21G33    30.30R WCI  29
SALINA         MOCLDY    40  29  64 N20       30.31R WCI  30
TOPEKA         CLOUDY    39  28  64 N18G26    30.26R WCI  30



USA.gov is the U.S. government's official web portal to all federal, state and local government web resources and services.